Location: Clyde
(45.1830°S, 169.3170°E)
Time: 17:02:40
(UTC+12:00)

Atlas Centaur 2 - Pass Details

Date: 14 May 2021
Orbit: 459 x 1309 km, 30.4° (Epoch: 16 June)

Event Time Altitude Azimuth Distance (km) Brightness Sun altitude
Rises 19:43:00 0° 293° (WNW) 3,294 6.4 -24.3°
Reaches altitude 10° 19:46:02 10° 311° (NW) 2,523 5.3 -24.8°
Maximum altitude 19:50:11 19° 354° (N) 2,151 4.3 -25.6°
Enters shadow 19:52:48 15° 20° (NNE) 2,465 4.4 -26.0°
